Location: Palermo
(38.1157°N, 13.3613°E)
Time: 08:10:34
(UTC+01:00)

ISS - Visible Passes

Search period start: 20 March 2019 00:00
Search period end: 30 March 2019 00:00
Orbit: 406 x 411 km, 51.6° (Epoch: 20 March)

Date Brightness Start Highest point End Pass type
(mag) Time Alt. Az. Time Alt. Az. Time Alt. Az.
20 Mar -3.5 19:41:03 10° SSW 19:43:58 45° SSE 19:43:58 45° SSE visible
21 Mar -2.5 18:50:39 10° S 18:53:20 23° SE 18:56:01 10° ENE visible
21 Mar -1.7 20:26:44 10° W 20:28:53 28° WNW 20:28:53 28° WNW visible
22 Mar -3.4 19:35:26 10° WSW 19:38:41 61° NW 19:40:47 20° NE visible
23 Mar -3.8 18:44:24 10° SW 18:47:40 67° SE 18:50:57 10° NE visible
23 Mar -1.3 20:22:10 10° WNW 20:24:31 18° NNW 20:25:14 17° N visible
24 Mar -1.8 19:30:26 10° W 19:33:17 26° NNW 19:36:09 10° NNE visible
25 Mar -0.8 20:18:12 10° NW 20:19:22 11° NNW 20:20:32 10° N visible
26 Mar -1.0 19:25:59 10° WNW 19:28:01 15° NNW 19:30:02 10° NNE visible
28 Mar -0.7 19:22:24 10° NNW 19:22:50 10° NNW 19:23:15 10° N visible
